[[{"header":{"parameterUnit":"m.s-1","parameterCategory":1,"la1":30.2991,"la2":30.254,"lo1":-89.0895,"lo2":-89.0444,"dy":0.0017,"dx":0.0017,"nx":28,"ny":28,"refTime":"2024-11-30T09:00:00:Z","depth":0,"parameterNumber":2,"parameterNumberName":"U-component_of_WINDS"},"data":[0,0,0,0,0,0,0,0,0,0,0,0,0,0,0,0,0,0,0,0,0,0,0,0,0,0,0,0,0,0,0,0,0,0,0,0,0,0,0,0,0,0,0,0,0,0,0,0,0,0,0,0,0,0,0,0,0,0,-3.1726,-3.1727,0,-3.1811,-3.1812,-3.1813,-3.178,-3.1778,-3.1776,-3.1774,-3.1859,-3.1863,-3.1867,0,0,0,0,0,0,0,0,0,0,0,0,0,-3.1532,-3.1536,-3.1726,-3.1727,-3.1728,-3.1811,-3.1812,-3.1814,-3.178,-3.1778,-3.1775,-3.1773,-3.1858,-3.1863,-3.1868,0,0,0,0,0,0,0,0,0,0,0,0,0,-3.1617,-3.1537,-3.1726,-3.1722,-3.1722,-3.1811,-3.1812,-3.1814,-3.1781,-3.1778,-3.1775,-3.1772,-3.1856,-3.1862,-3.1868,-3.1966,0,0,-3.1887,-3.189,0,0,0,0,0,0,0,0,-3.1612,-3.1624,-3.1721,-3.1722,-3.1723,-3.1782,-3.1775,-3.1865,-3.1781,-3.1758,-3.1774,-3.177,-3.1836,-3.1843,-3.1866,-3.197,-3.1974,-3.1888,-3.1891,-3.1894,-3.1896,0,0,0,0,0,0,0,-3.1606,-3.162,-3.176,-3.1723,-3.1724,-3.1715,-3.1723,-3.1792,-3.1813,-3.176,-3.1758,-3.1768,-3.1836,-3.186,-3.1868,-3.1975,-3.1888,-3.1893,-3.1897,-3.1899,-3.2161,-3.2164,0,0,0,0,0,0,-3.1601,-3.1616,-3.1757,-3.1762,-3.1659,-3.1721,-3.173,-3.1766,-3.1812,-3.1816,-3.1771,-3.1767,-3.1851,-3.186,-3.187,-3.1985,-3.1894,-3.19,-3.1903,-3.2158,-3.2162,-3.2165,0,0,0,0,0,0,-3.1597,-3.1614,-3.1754,-3.1688,-3.1706,-3.1727,-3.1767,-3.1769,-3.1793,-3.182,-3.1823,-3.1792,-3.1849,-3.1862,-3.1942,-3.1988,-3.1903,-3.1908,-3.2154,-3.2159,-3.2163,-3.2218,0,0,0,0,0,0,-3.1591,-3.1612,-3.165,-3.169,-3.1709,-3.1825,-3.177,-3.1773,-3.1804,-3.18,-3.1841,-3.1845,-3.1848,-3.1933,-3.1948,-3.1995,-3.1913,-3.215,-3.2156,-3.2162,-3.2212,-3.2224,-3.2234,0,0,0,0,0,-3.1584,-3.1662,-3.1652,-3.1669,-3.1757,-3.1827,-3.1838,-3.1841,-3.1808,-3.1846,-3.1863,-3.1843,-3.1981,-3.1941,-3.1958,-3.2008,-3.2147,-3.2154,-3.2161,-3.2207,-3.2222,-3.2234,0,0,0,0,0,0,-3.1627,-3.1667,-3.1657,-3.175,-3.1786,-3.1822,-3.1869,-3.1856,-3.1902,-3.1895,-3.1895,-3.1905,-3.1987,-3.2006,-3.1961,-3.2104,-3.2059,-3.207,-3.2088,-3.2102,-3.2113,-3.2105,-3.1918,0,0,0,0,0,-3.1648,-3.1702,-3.1734,-3.1813,-3.1832,-3.1847,-3.1878,-3.1877,-3.1913,-3.1928,-3.1951,-3.1987,-3.2038,-3.2071,-3.212,-3.2215,-3.2223,-3.2258,-3.2269,-3.2278,-3.2286,-3.2336,-3.2351,-3.2189,-3.2189,-3.2189,0,0,-3.169,-3.1719,-3.1753,-3.1822,-3.185,-3.1905,-3.186,-3.1921,-3.1961,-3.1937,-3.2013,-3.2032,-3.2072,-3.2159,-3.2199,-3.2177,-3.2333,-3.2287,-3.2294,-3.2298,-3.2345,-3.236,-3.2374,-3.2194,-3.2193,-3.2192,0,0,-3.1795,-3.1823,-3.1891,-3.1919,-3.1961,-3.1971,-3.1988,-3.2026,-3.2037,-3.2114,-3.2097,-3.2145,-3.2234,-3.2262,-3.2288,-3.2404,-3.2386,-3.242,-3.2477,-3.2525,-3.2537,-3.2549,-3.2587,-3.2601,-3.2429,-3.2429,-3.2429,0,-3.1841,-3.1924,-3.1927,-3.1989,-3.2019,-3.2,-3.2068,-3.2096,-3.2151,-3.2172,-3.2148,-3.2257,-3.2283,-3.2376,-3.2404,-3.2427,-3.2444,-3.2413,-3.2536,-3.2547,-3.2557,-3.2594,-3.2609,-3.2432,-3.2432,-3.2432,-3.2431,0,-3.1979,-3.2037,-3.2086,-3.214,-3.2176,-3.2241,-3.2252,-3.2288,-3.2284,-3.2297,-3.2374,-3.2405,-3.2458,-3.2481,-3.2478,-3.2573,-3.2558,-3.2535,-3.249,-3.2576,-3.261,-3.2625,-3.2437,-3.2436,-3.2435,-3.2434,0,0,-3.2111,-3.2166,-3.2184,-3.2207,-3.2253,-3.2297,-3.236,-3.2413,-3.2443,-3.2482,-3.2534,-3.2609,-3.2588,-3.2618,-3.2617,-3.266,-3.2746,-3.2631,-3.2632,-3.2649,-3.285,-3.2865,-3.2881,-3.2737,-3.2739,-3.2742,-3.2846,0,-3.2217,-3.2328,-3.2332,-3.2432,-3.2484,-3.2468,-3.2523,-3.2556,-3.2569,-3.2615,-3.263,-3.2682,-3.2651,-3.2669,-3.2711,-3.2727,-3.2786,-3.272,-3.2782,-3.2784,-3.277,-3.29,-3.2916,-3.3013,-3.286,-3.2862,-3.2864,0,-3.2355,-3.2398,-3.2504,-3.254,-3.2562,-3.2612,-3.2659,-3.2704,-3.2741,-3.2747,-3.2781,-3.2774,-3.2837,-3.2792,-3.2878,-3.2833,-3.2859,-3.2871,-3.2875,-3.2878,-3.2827,-3.2904,-3.3044,-3.3057,-3.2885,-3.2884,-3.2882,0,-3.2437,-3.2522,-3.2596,-3.2617,-3.2662,-3.2697,-3.2717,-3.2751,-3.2782,-3.2824,-3.2844,-3.2893,-3.2919,-3.2957,-3.2963,-3.293,-3.3049,-3.3005,-3.3054,-3.3054,-3.3077,-3.3075,-3.322,-3.3099,-3.3099,-3.3099,-3.3099,0,-3.2553,-3.2618,-3.2633,-3.2678,-3.275,-3.2754,-3.2824,-3.2842,-3.2872,-3.2919,-3.2909,-3.2954,-3.2961,-3.3007,-3.3013,-3.3081,-3.3094,-3.31,-3.31,-3.3099,-3.3098,-3.3114,-3.3106,-3.3103,-3.3102,-3.3101,-3.31,0,-3.2656,-3.2669,-3.2748,-3.2784,-3.2795,-3.2845,-3.2876,-3.2918,-3.2931,-3.2991,-3.3005,-3.3025,-3.3078,-3.3089,-3.3153,-3.3156,-3.3237,-3.3232,-3.3225,-3.3223,-3.327,-3.3265,-3.3429,-3.3449,-3.3318,-3.3319,-3.332,0,-3.2727,-3.2777,-3.2818,-3.2849,-3.2871,-3.2921,-3.2952,-3.2959,-3.2992,-3.3037,-3.3073,-3.3126,-3.3168,-3.3254,-3.3273,-3.3321,-3.3315,-3.337,-3.3322,-3.3319,-3.3312,-3.3308,-3.3312,-3.3378,-3.3379,-3.338,-3.3381,0,-3.2852,-3.2856,-3.2902,-3.295,-3.2988,-3.3026,-3.3062,-3.3088,-3.3099,-3.3136,-3.3191,-3.3223,-3.3288,-3.3339,-3.3387,-3.3407,-3.3395,-3.3396,-3.341,-3.3407,-3.34,-3.3401,-3.3246,-3.3392,-3.3391,-3.339,-3.3389,-3.3389,-3.2939,-3.2981,-3.3017,-3.3067,-3.3095,-3.3129,-3.317,-3.3188,-3.3234,-3.3286,-3.3288,-3.3346,-3.3381,-3.3444,-3.3467,-3.3513,-3.3496,-3.3516,-3.352,-3.3524,-3.3527,-3.3395,-3.3522,-3.3522,-3.3522,-3.3521,-3.3521,0,-3.3061,-3.3083,-3.313,-3.318,-3.322,-3.3207,-3.3246,-3.328,-3.3332,-3.3365,-3.3407,-3.3468,-3.3518,-3.3542,-3.359,-3.3622,-3.3618,-3.3634,-3.363,-3.3635,-3.3541,-3.3523,-3.3637,-3.3637,-3.3637,-3.3637,-3.3637,-3.3637,-3.3128,-3.3198,-3.3206,-3.3289,-3.331,-3.3368,-3.3391,-3.3421,-3.3448,-3.3517,-3.3558,-3.3574,-3.3603,-3.3653,-3.3698,-3.3704,-3.3721,-3.3739,-3.3742,-3.3653,-3.3642,-3.363,-3.3613,-3.3744,-3.3744,-3.3831,-3.3832,-3.3832]},{"header":{"parameterUnit":"m.s-1","parameterCategory":1,"la1":30.2991,"la2":30.254,"lo1":-89.0895,"lo2":-89.0444,"dy":0.0017,"dx":0.0017,"nx":28,"ny":28,"refTime":"2024-11-30T09:00:00:Z","depth":0,"parameterNumber":3,"parameterNumberName":"V-component_of_WINDS"},"data":[0,0,0,0,0,0,0,0,0,0,0,0,0,0,0,0,0,0,0,0,0,0,0,0,0,0,0,0,0,0,0,0,0,0,0,0,0,0,0,0,0,0,0,0,0,0,0,0,0,0,0,0,0,0,0,0,0,0,-0.5388,-0.5388,0,-0.5414,-0.5414,-0.5414,-0.547,-0.5472,-0.5473,-0.5474,-0.5499,-0.5499,-0.5498,0,0,0,0,0,0,0,0,0,0,0,0,0,-0.5384,-0.5384,-0.5387,-0.5388,-0.5388,-0.5414,-0.5414,-0.5414,-0.547,-0.5472,-0.5473,-0.5474,-0.5499,-0.5499,-0.5498,0,0,0,0,0,0,0,0,0,0,0,0,0,-0.5396,-0.5384,-0.5387,-0.5419,-0.5422,-0.5414,-0.5414,-0.5414,-0.547,-0.5472,-0.5473,-0.5475,-0.5499,-0.5499,-0.5498,-0.546,0,0,-0.5496,-0.5496,0,0,0,0,0,0,0,0,-0.5395,-0.5396,-0.5414,-0.5417,-0.542,-0.5441,-0.5422,-0.543,-0.547,-0.5452,-0.5474,-0.5476,-0.5478,-0.5479,-0.548,-0.5461,-0.5462,-0.5496,-0.5496,-0.5496,-0.5496,0,0,0,0,0,0,0,-0.5394,-0.5395,-0.5398,-0.5414,-0.5418,-0.5432,-0.5435,-0.5424,-0.5455,-0.5454,-0.5458,-0.546,-0.548,-0.5481,-0.5481,-0.5463,-0.5496,-0.5496,-0.5495,-0.5495,-0.5413,-0.5411,0,0,0,0,0,0,-0.5389,-0.5394,-0.5397,-0.5399,-0.5412,-0.543,-0.5434,-0.5432,-0.5455,-0.546,-0.5459,-0.5463,-0.5481,-0.5482,-0.5483,-0.5439,-0.5496,-0.5495,-0.5495,-0.5415,-0.5413,-0.5411,0,0,0,0,0,0,-0.5389,-0.5389,-0.5396,-0.5397,-0.5399,-0.5428,-0.5426,-0.5432,-0.5433,-0.5459,-0.5465,-0.5454,-0.5482,-0.5483,-0.5465,-0.5441,-0.5495,-0.5494,-0.5417,-0.5414,-0.5412,-0.5352,0,0,0,0,0,0,-0.5388,-0.5388,-0.5374,-0.5397,-0.5399,-0.5379,-0.5425,-0.5431,-0.5432,-0.5437,-0.5456,-0.5461,-0.5484,-0.5466,-0.5465,-0.5441,-0.5494,-0.5419,-0.5416,-0.5413,-0.5356,-0.5348,-0.534,0,0,0,0,0,-0.5388,-0.5356,-0.5373,-0.5374,-0.5383,-0.5377,-0.5378,-0.5406,-0.543,-0.5416,-0.5433,-0.546,-0.5444,-0.5464,-0.5463,-0.5438,-0.5421,-0.5417,-0.5413,-0.536,-0.5349,-0.534,0,0,0,0,0,0,-0.533,-0.536,-0.5379,-0.5354,-0.5363,-0.5387,-0.537,-0.5394,-0.5396,-0.5401,-0.5434,-0.5438,-0.5415,-0.5425,-0.5447,-0.5402,-0.5437,-0.5432,-0.5397,-0.5387,-0.5379,-0.5377,-0.5493,0,0,0,0,0,-0.5314,-0.5308,-0.5334,-0.5309,-0.5313,-0.534,-0.5339,-0.536,-0.537,-0.5374,-0.5389,-0.5397,-0.5394,-0.5391,-0.539,-0.5358,-0.5363,-0.5341,-0.5333,-0.5326,-0.5322,-0.5305,-0.5295,-0.5397,-0.5397,-0.5397,0,0,-0.5282,-0.5297,-0.5291,-0.5298,-0.5307,-0.5299,-0.5343,-0.5333,-0.5327,-0.5372,-0.5356,-0.5367,-0.5379,-0.5353,-0.5343,-0.5361,-0.5294,-0.5321,-0.5315,-0.5314,-0.53,-0.529,-0.5281,-0.5394,-0.5395,-0.5395,0,0,-0.5219,-0.523,-0.521,-0.5219,-0.5232,-0.5251,-0.5246,-0.5266,-0.5275,-0.526,-0.5293,-0.5286,-0.528,-0.5287,-0.5289,-0.5228,-0.5253,-0.5226,-0.5184,-0.5167,-0.5159,-0.5152,-0.513,-0.5121,-0.5222,-0.5222,-0.5222,0,-0.5176,-0.5166,-0.5197,-0.5185,-0.5186,-0.5227,-0.5207,-0.5213,-0.5225,-0.5225,-0.5245,-0.5238,-0.5248,-0.5225,-0.521,-0.5211,-0.5206,-0.5224,-0.5158,-0.5151,-0.5145,-0.5124,-0.5116,-0.5218,-0.5219,-0.5219,-0.522,0,-0.5113,-0.5106,-0.5088,-0.5099,-0.5099,-0.5082,-0.511,-0.5106,-0.5127,-0.5143,-0.5126,-0.514,-0.5142,-0.5138,-0.5157,-0.5117,-0.5127,-0.5152,-0.5187,-0.5132,-0.5112,-0.5105,-0.5214,-0.5215,-0.5216,-0.5217,0,0,-0.5014,-0.5042,-0.5035,-0.504,-0.5058,-0.5052,-0.5038,-0.504,-0.5035,-0.5042,-0.503,-0.5023,-0.5046,-0.5049,-0.507,-0.5055,-0.5005,-0.5082,-0.5083,-0.5067,-0.496,-0.4941,-0.4931,-0.5022,-0.5021,-0.502,-0.4959,0,-0.4955,-0.4932,-0.4959,-0.493,-0.4922,-0.4961,-0.4948,-0.4957,-0.4971,-0.4967,-0.4983,-0.4978,-0.5009,-0.501,-0.4998,-0.5014,-0.4984,-0.5019,-0.501,-0.501,-0.5006,-0.4922,-0.4901,-0.4844,-0.4952,-0.4951,-0.495,0,-0.4882,-0.4885,-0.4856,-0.4875,-0.4873,-0.4861,-0.4865,-0.486,-0.4871,-0.4882,-0.4885,-0.491,-0.4896,-0.4931,-0.4912,-0.4934,-0.4933,-0.494,-0.4938,-0.4938,-0.4976,-0.4919,-0.4826,-0.4817,-0.4938,-0.4939,-0.494,0,-0.4812,-0.4809,-0.4791,-0.4794,-0.4816,-0.4807,-0.4815,-0.4828,-0.4827,-0.483,-0.483,-0.4831,-0.4832,-0.4832,-0.4856,-0.4879,-0.4834,-0.487,-0.4842,-0.4841,-0.4831,-0.4831,-0.4736,-0.483,-0.483,-0.483,-0.4831,0,-0.4742,-0.4722,-0.476,-0.4748,-0.4727,-0.4758,-0.4736,-0.4748,-0.4759,-0.475,-0.4783,-0.4774,-0.4807,-0.4801,-0.482,-0.4801,-0.4801,-0.481,-0.4815,-0.4807,-0.4805,-0.4806,-0.481,-0.4828,-0.4829,-0.4829,-0.483,0,-0.466,-0.4684,-0.4667,-0.4689,-0.4694,-0.4677,-0.4696,-0.4686,-0.4703,-0.4691,-0.469,-0.4716,-0.4711,-0.4736,-0.4735,-0.4748,-0.4719,-0.4731,-0.4715,-0.4719,-0.4689,-0.4691,-0.4591,-0.4579,-0.4681,-0.468,-0.4679,0,-0.4614,-0.4599,-0.462,-0.4617,-0.4624,-0.4618,-0.4618,-0.4648,-0.4646,-0.4656,-0.4645,-0.4643,-0.4642,-0.4632,-0.4651,-0.465,-0.4662,-0.4627,-0.4662,-0.4654,-0.4661,-0.4661,-0.466,-0.4619,-0.4618,-0.4617,-0.4616,0,-0.4529,-0.4541,-0.454,-0.4542,-0.4541,-0.4544,-0.455,-0.4545,-0.4577,-0.4573,-0.4568,-0.4568,-0.4567,-0.4564,-0.4567,-0.4576,-0.46,-0.4605,-0.4598,-0.4589,-0.4581,-0.4584,-0.4695,-0.4607,-0.4608,-0.4609,-0.4609,-0.4609,-0.4463,-0.4452,-0.4464,-0.4461,-0.4469,-0.4473,-0.4464,-0.448,-0.4477,-0.4479,-0.4497,-0.4488,-0.4499,-0.4506,-0.4511,-0.4505,-0.4522,-0.4512,-0.451,-0.4507,-0.4501,-0.4582,-0.4506,-0.4506,-0.4506,-0.4506,-0.4507,0,-0.4379,-0.4389,-0.4386,-0.4393,-0.439,-0.4415,-0.4422,-0.4418,-0.441,-0.4418,-0.4417,-0.4412,-0.4409,-0.4427,-0.4426,-0.4418,-0.4429,-0.4416,-0.4417,-0.4418,-0.4487,-0.4492,-0.4407,-0.4407,-0.4407,-0.4407,-0.4407,-0.4407,-0.4335,-0.4317,-0.4331,-0.4317,-0.4328,-0.432,-0.4322,-0.4326,-0.4332,-0.4325,-0.4323,-0.4335,-0.4346,-0.4347,-0.4345,-0.4351,-0.4348,-0.4332,-0.4341,-0.4404,-0.4414,-0.4423,-0.4428,-0.4331,-0.4331,-0.4273,-0.4272,-0.4272]}]]